Le nostre stazioni meteo in Italia

Pubblicità
Il mio iltempo24.it
Kinbrace, Gran Bretagna (99016): Temperatura & dewpoint: 22.06.2017 23:00:00 - 28.06.2017 23:00:00 (BST)Kinbrace, Gran Bretagna (99016): velocità del vento & gusts: 22.06.2017 23:00:00 - 28.06.2017 23:00:00 (BST)Kinbrace, Gran Bretagna (99016): direzione del vento: 22.06.2017 23:00:00 - 28.06.2017 23:00:00 (BST)Kinbrace, Gran Bretagna (99016): visibility: 22.06.2017 23:00:00 - 28.06.2017 23:00:00 (BST)Kinbrace, Gran Bretagna (99016): precipitazioni: 22.06.2017 23:00:00 - 28.06.2017 23:00:00 (BST)
Data & Tempo tt [°C] td [°C] ff [km/h] ff [kn] fx [km/h] fx [kn] dd vv [km] rr [mm]
28.06.2017 23:00:00 9,3 4,9 8 4 - - NNE - 0,0
28.06.2017 22:00:00 9,9 5,0 11 6 - - NE - 0,0
28.06.2017 21:00:00 10,3 5,2 13 7 - - NE - 0,0
28.06.2017 20:00:00 11,8 5,4 9 5 - - NNE - 0,0
28.06.2017 19:00:00 11,5 4,8 11 6 - - NE - 0,0
28.06.2017 18:00:00 11,9 5,2 15 8 - - ENE - 0,0
28.06.2017 17:00:00 12,2 6,5 9 5 - - ENE - 0,0
28.06.2017 16:00:00 12,6 6,4 13 7 - - ESE - 0,0
28.06.2017 15:00:00 14,0 6,5 21 11 - - SE - 0,0
28.06.2017 14:00:00 13,8 7,2 15 8 - - ESE - 0,0
28.06.2017 13:00:00 12,6 6,1 16 9 - - SE - 0,0
28.06.2017 12:00:00 12,9 7,1 18 10 - - ESE - 0,0
28.06.2017 11:00:00 12,1 7,2 15 8 - - SE - 0,0
28.06.2017 10:00:00 11,8 7,2 4 2 - - N 2,0 0,0
28.06.2017 09:00:00 11,4 7,9 16 9 - - SE - 0,0
28.06.2017 08:00:00 11,0 8,1 15 8 - - SE - 0,0
28.06.2017 07:00:00 10,5 8,0 13 7 - - SE - 0,0
28.06.2017 06:00:00 10,3 8,0 13 7 - - SE - 0,0
28.06.2017 05:00:00 10,0 7,8 15 8 - - SE - 0,0
28.06.2017 04:00:00 10,0 7,8 16 9 - - SE - 0,0
28.06.2017 03:00:00 10,2 8,0 15 8 - - SE - 0,0
28.06.2017 02:00:00 10,4 8,0 18 10 - - SE - 0,0
28.06.2017 01:00:00 10,4 8,3 16 9 - - SE - 0,0
28.06.2017 00:00:00 10,2 8,3 18 10 - - SE - 0,0
27.06.2017 23:00:00 10,4 7,8 21 11 - - SE - 0,0
27.06.2017 22:00:00 10,1 7,5 18 10 - - SE - 0,0
27.06.2017 21:00:00 10,2 8,0 15 8 - - SSE - 0,0
27.06.2017 20:00:00 10,1 7,4 18 10 - - SSE - 0,0
27.06.2017 19:00:00 10,0 7,9 16 9 - - SSE - 0,0
27.06.2017 18:00:00 10,4 8,3 16 9 - - SE - 0,0
27.06.2017 17:00:00 10,1 8,0 22 12 - - SE - 0,0
27.06.2017 16:00:00 10,7 8,3 18 10 - - SE - 0,2
27.06.2017 15:00:00 11,2 9,2 24 13 - - SE - 0,6
27.06.2017 14:00:00 11,2 8,2 24 13 - - SE - 0,0
27.06.2017 13:00:00 11,5 7,4 29 16 - - SE - 0,0
27.06.2017 12:00:00 11,2 7,0 26 14 - - SE - 0,0
27.06.2017 11:00:00 10,5 7,0 22 12 - - SE - 0,0
27.06.2017 10:00:00 10,6 6,4 26 14 - - SE 26 0,0
27.06.2017 09:00:00 10,4 6,5 26 14 - - SE - 0,0
27.06.2017 08:00:00 10,0 7,0 24 13 - - SE - 0,0
27.06.2017 07:00:00 10,0 6,9 26 14 - - SE - 0,0
27.06.2017 06:00:00 9,7 7,1 22 12 - - SE - 0,0
27.06.2017 05:00:00 9,5 7,2 15 8 - - SSE - 0,0
27.06.2017 04:00:00 9,1 7,0 11 6 - - ESE - 0,0
27.06.2017 03:00:00 9,2 7,0 18 10 - - ESE - 0,0
27.06.2017 02:00:00 8,7 6,5 15 8 - - SE - 0,0
27.06.2017 01:00:00 8,9 6,6 11 6 - - ESE - 0,0
27.06.2017 00:00:00 9,0 6,7 9 5 - - SE - 0,0
26.06.2017 23:00:00 9,3 6,6 13 7 - - ESE - 0,0
26.06.2017 22:00:00 9,6 6,7 13 7 - - SE - 0,0
26.06.2017 21:00:00 10,7 6,3 13 7 - - SE - 0,0
26.06.2017 20:00:00 11,9 6,0 0 0 - - N - 0,0
26.06.2017 19:00:00 11,7 6,3 5 3 - - SE - 0,0
26.06.2017 18:00:00 11,9 5,2 11 6 - - N - 0,0
26.06.2017 17:00:00 12,9 5,9 13 7 - - N - 0,0
26.06.2017 16:00:00 12,4 6,0 11 6 - - N - 0,0
26.06.2017 15:00:00 12,9 5,9 11 6 - - N - 0,0
26.06.2017 14:00:00 13,6 7,9 11 6 - - N - 0,0
26.06.2017 13:00:00 12,2 6,7 11 6 - - N - 0,0
26.06.2017 12:00:00 12,6 9,1 13 7 - - N - 0,2
26.06.2017 11:00:00 10,1 7,8 16 9 - - N - 0,4
26.06.2017 10:00:00 9,4 8,4 13 7 - - NO - -
26.06.2017 09:00:00 9,7 7,7 13 7 - - N - 0,4
26.06.2017 08:00:00 9,7 8,2 9 5 - - NNO - 0,4
26.06.2017 07:00:00 9,0 8,2 15 8 - - NO - 0,4
26.06.2017 06:00:00 8,9 8,1 11 6 - - NO - 0,0
26.06.2017 05:00:00 7,9 7,5 0 0 - - N - 0,0
26.06.2017 04:00:00 7,0 6,5 5 3 - - N - 0,0
26.06.2017 03:00:00 7,8 7,2 8 4 - - N - 0,0
26.06.2017 02:00:00 7,8 6,7 8 4 - - N - 0,0
26.06.2017 01:00:00 7,9 7,3 0 0 - - N - 0,0
26.06.2017 00:00:00 8,0 6,9 8 4 - - N - 0,0
25.06.2017 23:00:00 8,6 6,9 0 0 - - N - 0,0
25.06.2017 22:00:00 9,5 7,3 15 8 - - NNO - 0,0
25.06.2017 21:00:00 10,3 7,9 16 9 - - NNO - 0,0
25.06.2017 20:00:00 11,3 8,1 22 12 - - NO - 0,0
25.06.2017 19:00:00 11,2 8,4 24 13 - - NO - 0,2
25.06.2017 18:00:00 10,9 9,0 21 11 - - NNO - 0,0
25.06.2017 17:00:00 12,4 7,2 31 17 - - NO - 0,0
25.06.2017 16:00:00 11,4 7,7 34 18 48 26 NNO - 0,0
25.06.2017 15:00:00 12,0 7,4 31 17 - - NO - 0,0
25.06.2017 14:00:00 11,0 8,0 22 12 - - NO - 0,0
25.06.2017 13:00:00 11,3 7,3 24 13 - - ONO - 0,0
25.06.2017 12:00:00 12,1 8,5 31 17 - - NO - 0,2
25.06.2017 11:00:00 11,6 7,4 29 16 - - ONO - 0,0
25.06.2017 10:00:00 11,0 6,4 29 16 46 25 NO 19 0,0
25.06.2017 09:00:00 11,5 8,1 34 18 46 25 ONO - 0,0
25.06.2017 08:00:00 8,9 7,4 24 13 - - ONO - 0,0
25.06.2017 07:00:00 9,7 7,0 24 13 - - ONO - 0,0
25.06.2017 06:00:00 8,9 7,8 22 12 - - NO - 0,2
25.06.2017 05:00:00 8,6 7,4 15 8 - - NO - 0,0
25.06.2017 04:00:00 8,4 6,5 29 16 - - ONO - 0,4
25.06.2017 03:00:00 9,0 6,6 24 13 - - ONO - 0,0
25.06.2017 02:00:00 8,8 6,6 26 14 - - ONO - 0,0
25.06.2017 01:00:00 8,9 7,4 26 14 - - ONO - 0,2
25.06.2017 00:00:00 8,9 7,0 28 15 48 26 ONO - 0,4
24.06.2017 23:00:00 9,1 7,6 37 20 59 32 ONO - 0,2
24.06.2017 22:00:00 10,1 7,2 34 18 57 31 ONO - 0,2
24.06.2017 21:00:00 9,7 8,2 34 18 55 30 O - 0,2
24.06.2017 20:00:00 10,5 6,8 35 19 57 31 O - 0,0
24.06.2017 19:00:00 10,4 7,3 35 19 63 34 O - 0,0
24.06.2017 18:00:00 12,6 5,8 39 21 59 32 O - 0,0
24.06.2017 17:00:00 13,6 5,8 35 19 59 32 O - 0,0
24.06.2017 16:00:00 13,9 5,9 35 19 63 34 O - 0,0
24.06.2017 15:00:00 13,6 4,7 41 22 68 37 O - 0,0
24.06.2017 14:00:00 13,5 5,9 34 18 67 36 O - -
24.06.2017 13:00:00 12,9 6,2 39 21 59 32 O - 0,0
24.06.2017 12:00:00 12,7 6,3 37 20 57 31 O - 0,2
24.06.2017 11:00:00 10,8 6,7 29 16 52 28 OSO - 0,0
24.06.2017 10:00:00 10,9 6,3 22 12 52 28 O - 0,0
24.06.2017 09:00:00 11,5 6,6 29 16 54 29 OSO - 0,0
24.06.2017 08:00:00 10,7 6,6 34 18 50 27 OSO - 0,0
24.06.2017 07:00:00 9,7 6,0 16 9 - - OSO - 0,0
24.06.2017 06:00:00 9,2 5,4 13 7 - - O - 0,0
24.06.2017 05:00:00 8,7 4,9 2 1 - - O - 0,0
24.06.2017 04:00:00 9,3 5,0 24 13 - - OSO - 0,0
24.06.2017 03:00:00 8,9 6,2 15 8 - - OSO - 0,0
24.06.2017 02:00:00 9,6 6,3 16 9 - - O - 0,0
24.06.2017 01:00:00 9,6 5,7 13 7 - - OSO - 0,0
24.06.2017 00:00:00 10,2 5,8 16 9 - - OSO - 0,0
23.06.2017 23:00:00 10,7 6,3 16 9 - - O - 0,0
23.06.2017 22:00:00 11,4 6,1 16 9 - - OSO 10 0,0
23.06.2017 21:00:00 11,9 5,3 24 13 - - O - 0,0
23.06.2017 20:00:00 12,1 6,1 22 12 50 27 O - 0,0
23.06.2017 19:00:00 12,2 7,1 22 12 46 25 O - 0,0
23.06.2017 18:00:00 13,2 5,3 34 18 54 29 ONO - 0,0
23.06.2017 17:00:00 13,4 6,6 34 18 55 30 O - 0,0
23.06.2017 16:00:00 15,7 6,8 31 17 57 31 O - 0,0
23.06.2017 15:00:00 15,2 7,2 26 14 52 28 O - 0,0
23.06.2017 14:00:00 16,0 6,9 34 18 54 29 O - 0,0
23.06.2017 13:00:00 13,8 8,0 22 12 - - ONO - 0,0
23.06.2017 12:00:00 14,9 9,9 29 16 50 27 O - 0,0
23.06.2017 11:00:00 15,2 10,4 41 22 59 32 O - 0,0
23.06.2017 10:00:00 13,2 10,2 24 13 54 29 O 0,9 0,0
23.06.2017 09:00:00 13,1 10,2 21 11 46 25 O - 0,4
23.06.2017 08:00:00 13,6 12,0 18 10 - - SSO - 0,0
23.06.2017 07:00:00 13,2 10,9 22 12 - - S - 0,0
23.06.2017 06:00:00 12,5 10,5 18 10 - - S - 0,0
23.06.2017 05:00:00 12,8 10,2 24 13 - - SE - 0,0
23.06.2017 04:00:00 12,0 10,3 22 12 - - SSE - 0,0
23.06.2017 03:00:00 12,1 10,5 26 14 - - SSE - 0,0
23.06.2017 02:00:00 11,9 10,4 24 13 - - SSE - 0,2
23.06.2017 01:00:00 11,7 10,4 24 13 - - SSE - 0,2
23.06.2017 00:00:00 11,9 10,5 21 11 - - SSE - 0,4
22.06.2017 23:00:00 12,2 11,1 13 7 - - SSE - 0,2

tt = Temperatura
td = dewpoint
ff = velocità del vento
fx = gusts
dd = direzione del vento
vv = visibility
rr = precipitazioni

Stazioni seguenti

WeatherPro
AMSI
MeteoEarth